METEOR 2-8 DEB

Satellite information

Favourite Embed

Satellite Type and Status

DEBRISIN ORBIT

Key statistics

Satellite METEOR 2-8 DEB at a glance.

Uptime

15970

Days in orbit

Revolutions

≈ 14.3

Per day

Orbit

LEO

Low Earth Orbit

Inclination

82.5

Latest

Satellite identification and parameters

Extended collection of information and parameters for METEOR 2-8 DEB.

Object identification

Identified? True

Debris? True

Object name: METEOR 2-8 DEB

International designator: 1982-025D

Object number (NORAD): 36319

Object ID (CCSDS): 36319

Country: COMMONWEALTH OF INDEPENDENT STATES (CIS)

Current information (Y/N): Y

RCS size: SMALL

Orbital parameters

Period: 100.489 minutes

Inclination: 82.5202 deg

SMA: 7159.861 km

Apoapsis: 794.7 km

Periapsis: 768.752 km

RAAN: 328.0583 deg

Eccentricy: 0.00181206

Argument of periapsis: 193.8692 deg

Mean anomaly: 166.2 deg

Mean motion: 14.32998995 rev/day

Mean motion (dot): 0.00013225 rev/day2

B* drag term: 0.0048131932 1/REarth

Two-line elements (TLE)

Creation date: Dec. 11, 2025, 10:54 a.m.

Reference frame: TEME

Reference center: EARTH

Epoch: Dec. 11, 2025, 6:53 a.m. UTC

TLE line 0: 0 METEOR 2-8 DEB

TLE line 1: 1 36319U 82025D 25345.28740814 .00013225 00000-0 48132-2 0 9995

TLE line 2: 2 36319 82.5202 328.0583 0018121 193.8692 166.2000 14.32998995167146

Live tracking on map

Real-time ground track for satellite METEOR 2-8 DEB.

In-orbit conjunctions

A list of the most updated potential collisions computed for object METEOR 2-8 DEB.

Target Orbit TCA Probability of collision Miss distance Type
HEALTHSAT 1 SSO 2025-10-11 22:10:52 0.0001053726 598.0 (m) PAYLOAD
OSCAR 18 (WEBERSAT) SSO 2025-01-21 04:23:51 0.0002943764 565.0 (m) PAYLOAD
FENGYUN 1C DEB SSO 2024-11-13 03:49:10 0.0003055244 543.0 (m) DEBRIS
COSMOS 2251 DEB LEO 2024-08-15 17:43:18 0.0001311726 258.0 (m) DEBRIS

Associated space launch

Second generation soviet meteorological satellite

METEOR 2-8 DEB was lifted into orbit during the mission ‘Tsiklon-3 | Meteor-2 8’, on board a Tsiklon-3 space rocket.

The launch took place on March 25, 1982, 9:50 a.m. from 32/1.

For more information about the launch, click the button.

Launch to space Tsiklon-3 | Meteor-2 8
Tsiklon-3 | Meteor-2 8

Agency: N/A

Status: Launch Successful

Launch date: March 25, 1982, 9:50 a.m. UTC

Rocket: Tsiklon-3

Launch pad: 32/1

Location: Plesetsk Cosmodrome, Russian Federation

...

Latest news about this satellite

There are no fresh news available about this satellite. Check back as we update our databases every day.


Newsletter sign-up

Weekly statistics, charts and insights to help you stay on top of the space industry.